Location: PSU-Greenbush Astrophysical Observatory
(37.5140°N, 94.9880°W)
Time: 19:06:04
(UTC-06:00)

deb Explorer IX - Pass Details

Date: 26 January 2020
Orbit: 549 x 1099 km, 38.8° (Epoch: 27 February)

Event Time Altitude Azimuth Distance (km) Brightness Sun altitude
Rises 03:15:06 0° 285° (WNW) 3,901 - -50.0°
Reaches altitude 10° 03:18:07 10° 278° (W) 2,919 - -49.4°
Maximum altitude 03:24:38 38° 213° (SSW) 1,500 - -48.1°
Drops below altitude 10° 03:30:35 10° 147° (SSE) 2,657 - -47.0°
Exits shadow 03:33:05 - 139° (SE) 3,471 ? -46.5°
Sets 03:33:13 0° 139° (SE) 3,517 ? -46.5°
